Regional Weather Roundup
Issued by NWS

Home | Current Version | Previous Version | Graphics & Text | Print | Product List | Glossary On
Versions: 1 2 3 4 5 6 7 8 9 10 11 12 13 14 15 16 17 18 19 20 21 22 23 24 25 26 27 28 29 30 31 32 33 34 35 36 37 38 39 40 41 42 43 44 45 46 47 48 49 50
000
ASUS43 KOAX 271102
RWRNE

WEATHER ROUNDUP FOR NEBRASKA
NATIONAL WEATHER SERVICE OMAHA NE
600 AM CDT FRI MAR 27 2015

NOTES: SATELLITE DATA IS BEING USED TO AUGMENT CLOUD COVER ABOVE
       12000 FEET.
       "FAIR" INDICATES FEW OR NO CLOUDS BELOW 12,000 FEET WITH NO
       SIGNIFICANT WEATHER AND/OR OBSTRUCTIONS TO VISIBILITY.

  * THESE STATIONS DO NOT REPORT WEATHER SUCH AS RAIN...SNOW OR FOG.

NEZ001>004-019>022-054>056-271200-
NEBRASKA PANHANDLE

CITY           SKY/WX    TMP DP  RH WIND       PRES   REMARKS
SCOTTSBLUFF    LGT RAIN  37  35  92 SE8       30.15S WCI  31
ALLIANCE       CLOUDY    36  32  85 S12       30.13S WCI  28
CHADRON        CLOUDY    42  35  76 SW8       30.09F
KIMBALL        CLOUDY    39  33  78 S6        30.13R WCI  35
SIDNEY         LGT RAIN  35  32  88 S8        30.16S WCI  29
$$

NEZ057>060-069>072-079>082-271200-
SOUTHWEST NEBRASKA

CITY           SKY/WX    TMP DP  RH WIND       PRES   REMARKS
NORTH PLATTE   CLOUDY    31  28  89 E6        30.22S WCI  25
IMPERIAL       LGT SNOW  32  30  92 S5        30.21R FOG     WCI  27
MCCOOK         LGT SNOW  32  30  92 E6        30.23S FOG     WCI  26
$$

NEZ005>010-023>029-035>040-094-271200-
NORTH CENTRAL NEBRASKA

CITY           SKY/WX    TMP DP  RH WIND       PRES   REMARKS
VALENTINE      CLOUDY    33  26  75 S7        30.19F WCI  27
AINSWORTH      CLOUDY    31  29  92 S3        30.21S
BROKEN BOW     CLOUDY    32  25  75 W5        30.23S WCI  27
ORD            MOCLDY    24  20  84 CALM      30.24S
$$

NEZ041-046>049-061>064-073>077-083>087-271200-
SOUTH CENTRAL NEBRASKA

CITY           SKY/WX    TMP DP  RH WIND       PRES   REMARKS
GRAND ISLAND   MOCLDY    23  20  88 N6        30.27S WCI  16
AURORA         PTCLDY    24  23  96 N5        30.27R WCI  18
HASTINGS       CLOUDY    29  24  82 N7        30.25R WCI  22
HEBRON         CLEAR     29  26  88 N8        30.26S WCI  21
KEARNEY *      CLOUDY    30  25  80 NW3       30.25S
$$

NEZ011>018-030>034-042>045-271200-
NORTHEAST NEBRASKA

CITY           SKY/WX    TMP DP  RH WIND       PRES   REMARKS
NORFOLK        CLEAR     22  16  78 N5        30.26R WCI  16
ALBION         CLEAR     22  17  81 CALM      30.27R
BLAIR          CLEAR     24  18  77 NW8       30.24R WCI  15
COLUMBUS *     CLEAR     21  12  68 W6        30.29R WCI  14
TEKAMAH        CLEAR     18  14  84 W10G22    30.28R WCI   6
$$

NEZ050>053-065>068-078-088>093-271200-
SOUTHEAST NEBRASKA

CITY           SKY/WX    TMP DP  RH WIND       PRES   REMARKS
LINCOLN        CLEAR     26  21  81 N8        30.28R WCI  18
OMAHA EPPLEY   PTCLDY    24  18  77 N6        30.26R WCI  17
BEATRICE       CLEAR     25  23  93 N7        30.26R WCI  17
FALLS CITY     CLEAR     29  23  78 N7        30.24R WCI  22
NEBRASKA CITY  CLEAR     26  19  75 N7        30.25R WCI  19
PLATTSMOUTH    PTCLDY    25  17  69 N5        30.25R WCI  20
$$

NEZ044-045-051>053-067-271200-
OMAHA AREA

CITY           SKY/WX    TMP DP  RH WIND       PRES   REMARKS
OMAHA EPPLEY   PTCLDY    24  18  77 N6        30.26R WCI  17
BLAIR          CLEAR     24  18  77 NW8       30.24R WCI  15
OFFUTT AFB     CLEAR     25  17  70 NW7       30.25R WCI  17
PLATTSMOUTH    PTCLDY    25  17  69 N5        30.25R WCI  20
WAHOO          FAIR      22  18  84 NW5       30.27R WCI  16
$$


USA.gov is the U.S. government's official web portal to all federal, state and local government web resources and services.